LiveATC.Net - Listen to live air traffic control over the Internet! Contact LiveATC.net for advertising information


ICAO: KAUG  IATA: AUG   Airport: Augusta State Airport
City: Augusta   State/Province: Maine
Country: United States   Continent: North America
KAUG METAR Weather: KAUG 030153Z AUTO 18004KT 10SM CLR 19/14 A2987 RMK AO2 SLP113 T01940144
KAUG Flight Activity (FlightAware)
KAUG Airport Info   (AirNav) (iFlightPlanner)
KAUG VFR Sectional Chart   (iFlightPlanner) 
KAUG IFR Low Chart   (iFlightPlanner) 
KAUG CTAF/App/ZBW02
Feed Status: UP   Listeners: 2
Listen right in your browser - requires Flash (in browser, requires Flash)
Click here to listen with your own player (launches your MP3 player)
KAUG CTAF/App/ZBW02 Audio Archives
FacilityFrequency
Augusta Clearance Delivery119.950
Augusta CTAF/UNICOM123.000
Boston Center (Sector 02 Augusta High)134.950
Boston Center (Sector 02 Augusta High)307.000
Portland Approach128.350

Sponsored by LiveATC.net and Maine Instrument Flight

ICAO: KBGR  IATA: BGR   Airport: Bangor International Airport
City: Bangor   State/Province: Maine
Country: United States   Continent: North America
KBGR METAR Weather: KBGR 030153Z 20006KT 10SM FEW060 FEW200 20/13 A2986 RMK AO2 SLP109 T02000133
KBGR Flight Activity (FlightAware)
KBGR Airport Info   (AirNav) (iFlightPlanner)
KBGR VFR Sectional Chart   (iFlightPlanner) 
KBGR IFR Low Chart   (iFlightPlanner) 
KBGR App/ZBW
Feed Status: UP   Listeners: 2
Listen right in your browser - requires Flash (in browser, requires Flash)
Click here to listen with your own player (launches your MP3 player)
KBGR App/ZBW Audio Archives
FacilityFrequency
Bangor Approach118.925
Bangor Approach124.500
ZBW Sector 01 Millinocket High 128.050
ZBW Sector 15 Surry Low 124.250


ICAO: KBOS  IATA: BOS   Airport: General Edward Lawrence Logan International Airport
City: Boston   State/Province: Massachusetts
Country: United States   Continent: North America
KBOS METAR Weather: KBOS 030054Z 23011KT 10SM FEW250 26/14 A2988 RMK AO2 SLP118 T02610139
KBOS Flight Activity (FlightAware)
KBOS Airport Info   (AirNav) (iFlightPlanner)
KBOS VFR Sectional Chart   (iFlightPlanner) 
KBOS IFR Low Chart   (iFlightPlanner) 
ZBW Boston Center (BOS46/47/PVD34/CTR07)
Feed Status: UP   Listeners: 0
Listen right in your browser - requires Flash (in browser, requires Flash)
Click here to listen with your own player (launches your MP3 player)
ZBW Boston Center (BOS46/47/PVD34/CTR07) Audio Archives
FacilityFrequency
ZBW BOS46 High (spare)118.425
ZBW BOS46 High (spare)277.400
ZBW BOS47 Low133.425
ZBW BOS47 Low307.900
ZBW CTR07 Low127.650
ZBW CTR07 Low257.925
ZBW PVD34 Low124.850
ZBW PVD34 Low269.200

ZBW Boston Center (CAM39)
Feed Status: UP   Listeners: 7
Listen right in your browser - requires Flash (in browser, requires Flash)
Click here to listen with your own player (launches your MP3 player)
ZBW Boston Center (CAM39) Audio Archives
FacilityFrequency
AWACS/Backup133.625
Boston Center (ALB 22 sector)121.350
Boston Center (ATHENS 38 sector)135.325
Boston Center (CAM 39 sector)128.325

ZBW Boston Center (CANAN21/BOS46)
Feed Status: UP   Listeners: 2
Listen right in your browser - requires Flash (in browser, requires Flash)
Click here to listen with your own player (launches your MP3 player)
ZBW Boston Center (CANAN21/BOS46) Audio Archives
FacilityFrequency
ZBW Boston Center (BOS46 High)126.225
ZBW Boston Center (BOS46 High)370.900
ZBW Boston Center (CANAN21 Low)132.650

ZBW Boston Center (GDM36/CON37)
Feed Status: UP   Listeners: 4
Listen right in your browser - requires Flash (in browser, requires Flash)
Click here to listen with your own player (launches your MP3 player)
ZBW Boston Center (GDM36/CON37) Audio Archives
FacilityFrequency
Boston Center (CON 37 sector)134.700
Boston Center (GDM 36 sector)123.750
Boston Center CON37 Sector (UHF)381.400
Boston Center GDM36 Sector (UHF)338.200
Emergency/Guard121.500
Emergency/Guard243.000

Sponsored by LiveATC.net
ZBW Boston Center (MPV52/PLB53)
Feed Status: UP   Listeners: 2
Listen right in your browser - requires Flash (in browser, requires Flash)
Click here to listen with your own player (launches your MP3 player)
ZBW Boston Center (MPV52/PLB53) Audio Archives
FacilityFrequency
ZBW Special Use (AWACS Control)354.100
ZBW52 Montpelier (Low/High)120.350
ZBW52 Montpelier (Low/High)282.200
ZBW52 Montpelier (Low/High)342.250
ZBW52 Montpelier Low/High135.700
ZBW53 Plattsburgh (High)118.825
ZBW53 Plattsburgh (High)251.075

ZBW Boston Center (RKA10)
Feed Status: UP   Listeners: 2
Listen right in your browser - requires Flash (in browser, requires Flash)
Click here to listen with your own player (launches your MP3 player)
ZBW Boston Center (RKA10) Audio Archives
FacilityFrequency
Boston Center (Rockdale 10 Sector High FL280-600)124.125

ZBW Boston Center (UCA09/ART08)
Feed Status: UP   Listeners: 2
Listen right in your browser - requires Flash (in browser, requires Flash)
Click here to listen with your own player (launches your MP3 player)
ZBW Boston Center (UCA09/ART08) Audio Archives
FacilityFrequency
Boston Center (Utica 09 Sector)123.875
Boston Center (Watertown 08 Sector)135.250

ZBW/ZNY Atlantic Sectors + Military
Feed Status: UP   Listeners: 5
Listen right in your browser - requires Flash (in browser, requires Flash)
Click here to listen with your own player (launches your MP3 player)
ZBW/ZNY Atlantic Sectors + Military Audio Archives
FacilityFrequency
ARINC129.900
Boston Center (BOSOX 46 High)118.425
Boston Center (BOSOX 46 High)126.225
Boston Center ACK 17 Sector133.450
Boston Center CAPE 18 Sector128.750
Boston Center CAPE 18 Sector132.900
Military236.750
Military254.600
Military293.000
Military314.100
Military343.100
Military373.550
Military378.200
Military391.000
Military396.200
New York Center Oceanic Clearances125.925


ICAO: KFMH  IATA: FMH   Airport: Cape Cod Coast Guard Air Station
City: Falmouth   State/Province: Massachusetts
Country: United States   Continent: North America
KFMH METAR Weather: KFMH 030215Z AUTO 00000KT 10SM CLR 21/18 A2993 RMK AO2
KFMH Flight Activity (FlightAware)
KFMH Airport Info   (AirNav) (iFlightPlanner)
KFMH VFR Sectional Chart   (iFlightPlanner) 
KFMH IFR Low Chart   (iFlightPlanner) 
ZBW/ZNY (Cape Cod)
Feed Status: UP   Listeners: 2
Listen right in your browser - requires Flash (in browser, requires Flash)
Click here to listen with your own player (launches your MP3 player)
ZBW/ZNY (Cape Cod) Audio Archives
FacilityFrequency
Boston Center (ACK17 Sector)133.450
Boston Center (CAPE18 Sector)128.750
Emergency/Guard121.500
New York Center (High Oceanic)125.925

Feed courtesy of: Scan New England and LiveATC.net
Scan New England

ICAO: KHUL  IATA: HUL   Airport: Houlton International Airport
City: Houlton   State/Province: Maine
Country: United States   Continent: North America
KHUL METAR Weather: KHUL 030153Z AUTO 20005KT 9SM CLR 21/13 A2982 RMK AO2 SLP096 T02060133
KHUL Flight Activity (FlightAware)
KHUL Airport Info   (AirNav) (iFlightPlanner)
KHUL VFR Sectional Chart   (iFlightPlanner) 
KHUL IFR Low Chart   (iFlightPlanner) 
KHUL/KPQI/ZBW01/15
Feed Status: DOWN
Last heard on: 2015-07-15 13:36:03 (18 days 12 hours 58 minutes ago)
KHUL/KPQI/ZBW01/15 Audio Archives
FacilityFrequency
Boston Center (Sector 01 Millinocket High Sector)128.050
Boston Center (Sector 01 Millinocket High Sector)319.100
Boston Center (Surry 15 Low Sector)120.250
Boston Center (Surry 15 Low Sector)346.400
Emergency/Guard121.500
Houlton CTAF/UNICOM122.800
Presque Isle CTAF/UNICOM122.800


ICAO: KJFK  IATA: JFK   Airport: John F Kennedy International Airport
City: New York   State/Province: New York
Country: United States   Continent: North America
KJFK METAR Weather: KJFK 030151Z 19009KT 10SM FEW250 26/20 A2989 RMK AO2 SLP122 T02560200 $
KJFK Flight Activity (FlightAware)
KJFK Airport Info   (AirNav) (iFlightPlanner)
KJFK VFR Sectional Chart   (iFlightPlanner) 
KJFK IFR Low Chart   (iFlightPlanner) 
ZBW Boston Center (CLIPR32/HTO31)
Feed Status: UP   Listeners: 2
Listen right in your browser - requires Flash (in browser, requires Flash)
Click here to listen with your own player (launches your MP3 player)
ZBW Boston Center (CLIPR32/HTO31) Audio Archives
FacilityFrequency
Boston Center (CLIPR32 Sector)135.800
Boston Center (HTO31 Sector)124.525
Emergency/Guard121.500

ZBW Boston Center (DXR19/SOUTHIE49)
Feed Status: UP   Listeners: 2
Listen right in your browser - requires Flash (in browser, requires Flash)
Click here to listen with your own player (launches your MP3 player)
ZBW Boston Center (DXR19/SOUTHIE49) Audio Archives
FacilityFrequency
Boston Center (DANBURY 19 Sector)134.000
Boston Center (SOUTHIE49 Sector)132.300

ZBW/ZNY/ZDC (JFK Area) #1
Feed Status: UP   Listeners: 4
Listen right in your browser - requires Flash (in browser, requires Flash)
Click here to listen with your own player (launches your MP3 player)
ZBW/ZNY/ZDC (JFK Area) #1 Audio Archives
FacilityFrequency
Boston Center (IGN20 Sector 20 Kingston High)125.575
New York Center (Sector 42 East Texas High)127.175
New York Center (Sector 56 Kennedy High backup)128.675
New York Center (Sector 56 Kennedy High backup)134.375
New York Center (Sector 56 Kennedy High)125.325
Washington Center (Sector 10 BAY High)132.275
Washington Center (Sector 12 High)126.875
Washington Center (Sector 18 DUPONT High)132.525
Washington Center (Sector 19 Woodstown High)125.450


ICAO: KPQI  IATA: PQI   Airport: Northern Maine Regional Airport at Presque Isle
City: Presque Isle   State/Province: Maine
Country: United States   Continent: North America
KPQI METAR Weather: KPQI 030215Z AUTO 19004KT 10SM CLR 18/12 A2981 RMK AO1
KPQI Flight Activity (FlightAware)
KPQI Airport Info   (AirNav) (iFlightPlanner)
KPQI VFR Sectional Chart   (iFlightPlanner) 
KPQI IFR Low Chart   (iFlightPlanner) 
KHUL/KPQI/ZBW01/15
Feed Status: DOWN
Last heard on: 2015-07-15 13:36:03 (18 days 12 hours 58 minutes ago)
KHUL/KPQI/ZBW01/15 Audio Archives
FacilityFrequency
Boston Center (Sector 01 Millinocket High Sector)128.050
Boston Center (Sector 01 Millinocket High Sector)319.100
Boston Center (Surry 15 Low Sector)120.250
Boston Center (Surry 15 Low Sector)346.400
Emergency/Guard121.500
Houlton CTAF/UNICOM122.800
Presque Isle CTAF/UNICOM122.800


ICAO: KPWM  IATA: PWM   Airport: Portland International Jetport
City: Portland   State/Province: Maine
Country: United States   Continent: North America
KPWM METAR Weather: KPWM 030151Z 18003KT 10SM CLR 19/16 A2987 RMK AO2 SLP113 T01890161
KPWM Flight Activity (FlightAware)
KPWM Airport Info   (AirNav) (iFlightPlanner)
KPWM VFR Sectional Chart   (iFlightPlanner) 
KPWM IFR Low Chart   (iFlightPlanner) 
ZBW Boston Center (PARSO16)
Feed Status: UP   Listeners: 2
Listen right in your browser - requires Flash (in browser, requires Flash)
Click here to listen with your own player (launches your MP3 player)
ZBW Boston Center (PARSO16) Audio Archives
FacilityFrequency
Boston Center (PARSO Sector, Low)128.200


ICAO: KSWF  IATA: SWF   Airport: Stewart International Airport
City: Newburgh   State/Province: New York
Country: United States   Continent: North America
KSWF METAR Weather: KSWF 030145Z 25004KT 10SM SKC 25/14 A2988
KSWF Flight Activity (FlightAware)
KSWF Airport Info   (AirNav) (iFlightPlanner)
KSWF VFR Sectional Chart   (iFlightPlanner) 
KSWF IFR Low Chart   (iFlightPlanner) 
ZBW Boston Center (SWF05)
Feed Status: UP   Listeners: 2
Listen right in your browser - requires Flash (in browser, requires Flash)
Click here to listen with your own player (launches your MP3 player)
ZBW Boston Center (SWF05) Audio Archives
FacilityFrequency
Boston Center (Stewart 05 Sector)134.300

Sponsored by LiveATC.net and Poughkeepsie Pilots Association

NOTICE

Unauthorized use prohibited. See LiveATC.net Terms of Service


Find LiveATC Audio Streams


Airport/ARTCC Code

Frequency
(e.g., 124.400, 128.75)
Site-wide search

Browse LiveATC Feeds
LiveATC Coverage Map
Top 50 LiveATC Feeds
Bad Weather Areas

LiveATC FAQ
Offer a LiveATC Feed
Contact LiveATC.net
Press Inquiries

LiveATC on iPhone
LiveATC on Android

LiveATC Mobile
(Mobile browser)

ATC Audio Archives
Interesting Recordings

LiveATC Forums


Home Page
About LiveATC.net
Make a Donation
LiveATC Bookstore

Terms of Use
Privacy Policy

ATC/Radar Sites
U.S. ARTCC Freqs
Canadian Air Freqs

AIRMETs/SIGMETs

FAA Airport Status
Nat'l Airspace Status
Arrival Demand Charts


Server Software By:
Icecast.org
Liquidsoap

Please make a donation to help us keep growing!